Location: Most
(50.5330°N, 13.6500°E)
Time: 19:10:14
(UTC+02:00)

ISS - Pass Details

Date: 21 May 2021
Orbit: 417 x 422 km, 51.6° (Epoch: 16 June)

Event Time Altitude Azimuth Distance (km) Brightness Sun altitude
Rises 22:07:42 0° 267° (W) 2,363 0.6 -9.4°
Reaches altitude 10° 22:09:48 10° 269° (W) 1,501 -0.4 -9.6°
Maximum altitude 22:13:10 73° 354° (N) 443 -3.5 -9.9°
Drops below altitude 10° 22:16:33 10° 81° (E) 1,505 -1.2 -10.3°
Enters shadow 22:18:23 - 83° (E) 2,257 -0.4 -10.5°
